K1NOT-WX Weather Reports


time (UTC)temp
F
wind
direction
speed
knots
gust
knots
rain 1hr
in
rain 24hr
in
rain mn
in
humidity
%
barometer
mb
20260505121212 54 180 2.6 4.3 0.00 0.00 0.00 90 1005.1
20260505115712 54 158 2.6 4.3 0.00 0.00 0.00 90 1005.4
20260505114212 53 248 2.6 5.2 0.00 0.00 0.00 91 1005.4
20260505112712 53 180 4.3 5.2 0.00 0.00 0.00 91 1005.1
20260505111212 53 203 1.7 1.7 0.00 0.00 0.00 91 1004.7
20260505101212 53 203 1.7 2.6 0.00 0.00 0.00 92 1004.7
20260505095712 53 180 4.3 5.2 0.00 0.00 0.00 92 1004.7
20260505094212 53 158 2.6 7.0 0.00 0.00 0.00 92 1004.7
20260505092712 53 180 5.2 6.1 0.00 0.00 0.00 92 1004.1
20260505091212 53 180 2.6 4.3 0.00 0.00 0.00 91 1004.1
20260505085712 53 203 3.5 6.1 0.00 0.00 0.00 91 1004.1
20260505084212 54 225 0.9 1.7 0.00 0.00 0.00 91 1004.1
20260505082712 54 203 3.5 4.3 0.00 0.00 0.00 90 1004.1
20260505081212 54 203 6.1 7.0 0.00 0.00 0.00 90 1003.7
20260505075712 54 158 0.9 1.7 0.00 0.00 0.00 89 1003.7
20260505074213 55 158 2.6 4.3 0.00 0.00 0.00 89 1003.7
20260505072713 55 180 1.7 1.7 0.00 0.00 0.00 88 1003.7
20260505071213 55 270 1.7 2.6 0.00 0.00 0.00 87 1003.4
20260505065713 56 203 0.9 1.7 0.00 0.00 0.00 86 1003.4
20260505064213 56 180 0.9 1.7 0.00 0.00 0.00 85 1003.0
20260505062713 57 225 2.6 2.6 0.00 0.00 0.00 83 1003.0
20260505061213 58 180 3.5 4.3 0.00 0.00 0.00 82 1002.7
20260505055713 59 180 2.6 4.3 0.00 0.00 0.00 81 1002.7
20260505054213 59 225 1.7 1.7 0.00 0.00 0.00 80 1002.4
20260505052713 60 158 2.6 4.3 0.00 0.00 0.00 80 1002.4
20260505051213 60 203 1.7 1.7 0.00 0.00 0.00 78 1002.4
20260505041213 64 203 0.9 1.7 0.00 0.00 0.00 71 1001.7
20260505035713 65 203 0.0 0.0 0.00 0.00 0.00 69 1001.7
20260505034213 66 225 0.0 0.0 0.00 0.00 0.00 66 1001.4
20260505032713 68 225 0.9 1.7 0.00 0.00 0.00 62 1001.4
20260505031213 69 293 0.0 0.0 0.00 0.00 0.00 54 1000.7
20260505025713 70 180 0.0 0.0 0.00 0.00 0.00 52 1001.0
20260505024213 71 293 0.9 1.7 0.00 0.00 0.00 52 1001.0
20260505022712 72 293 1.7 2.6 0.00 0.00 0.00 51 1000.7
20260505021213 72 225 0.0 0.9 0.00 0.00 0.00 51 1001.0
20260505015712 73 270 1.7 1.7 0.00 0.00 0.00 50 1000.7
20260505014212 76 225 0.0 0.9 0.00 0.00 0.00 48 1000.7
20260505012712 77 225 3.5 4.3 0.00 0.00 0.00 44 1000.7
20260505011212 77 315 0.9 1.7 0.00 0.00 0.00 42 1000.7
20260505005712 78 293 1.7 1.7 0.00 0.00 0.00 42 1000.7
20260505004212 77 158 2.6 3.5 0.00 0.00 0.00 41 1001.0
20260505002712 78 225 1.7 1.7 0.00 0.00 0.00 40 1000.7
20260505001212 78 113 3.5 4.3 0.00 0.00 0.00 40 1001.0
20260504235712 78 180 3.5 6.1 0.00 0.00 0.00 40 1001.4
20260504234212 78 203 2.6 2.6 0.00 0.00 0.00 41 1001.0
20260504232712 78 203 4.3 4.3 0.00 0.00 0.00 40 1001.0
20260504231212 77 180 1.7 2.6 0.00 0.00 0.00 39 1001.0
20260504225712 78 158 0.9 1.7 0.00 0.00 0.00 40 1001.4
20260504224212 78 225 2.6 4.3 0.00 0.00 0.00 40 1001.4
20260504222712 77 180 1.7 1.7 0.00 0.00 0.00 38 1001.7
20260504221212 78 180 1.7 1.7 0.00 0.00 0.00 38 1001.7
20260504215712 77 248 2.6 3.5 0.00 0.00 0.00 38 1002.0
20260504214212 77 225 1.7 2.6 0.00 0.00 0.00 45 1001.7
20260504212712 76 270 1.7 1.7 0.00 0.00 0.00 48 1002.0
20260504211212 77 225 1.7 2.6 0.00 0.00 0.00 46 1002.0
20260504205712 76 203 2.6 2.6 0.00 0.00 0.00 45 1002.0
20260504204212 77 203 0.9 1.7 0.00 0.00 0.00 44 1002.0
20260504202712 77 158 3.5 6.1 0.00 0.00 0.00 37 1002.0
20260504201212 76 248 1.7 1.7 0.00 0.00 0.00 41 1002.0
20260504195712 76 225 3.5 4.3 0.00 0.00 0.00 39 1002.0
20260504194212 77 270 1.7 1.7 0.00 0.00 0.00 35 1002.0
20260504192712 77 225 2.6 2.6 0.00 0.00 0.00 35 1002.4
20260504191212 76 158 0.9 1.7 0.00 0.00 0.00 36 1002.4
20260504185712 79 248 1.7 1.7 0.00 0.00 0.00 37 1002.4
20260504184212 78 180 1.7 2.6 0.00 0.00 0.00 39 1002.4
20260504182712 78 225 1.7 1.7 0.00 0.00 0.00 39 1002.4
20260504181212 78 248 1.7 1.7 0.00 0.00 0.00 39 1002.4
20260504175712 76 270 1.7 1.7 0.00 0.00 0.00 39 1002.4
20260504174212 76 293 0.9 1.7 0.00 0.00 0.00 38 1002.7
20260504172712 77 315 0.9 1.7 0.00 0.00 0.00 40 1002.4
20260504171212 76 315 0.0 1.7 0.00 0.00 0.00 41 1002.7
20260504141213 59 135 0.0 0.0 0.00 0.00 0.00 73 1001.4